ECMWFFLT2_850_spd_021.txt.gz
Wind_Speed
24 23 22 21 20 19 18 18 17 17 16 16 15 14 14 13 12 11 10 9 8 8 7 7 6 5 5 5 5 4 4 4 4 3 3 3 2 2 2 2 3 5 7 9 11 15 21 23 21 17 13 12 12 10 8 7 7 8 8 7 7 6
23 21 22 21 21 20 19 18 17 16 16 15 15 14 13 12 11 10 10 9 8 8 7 7 6 6 5 5 4 4 4 4 3 3 3 3 2 2 2 2 3 5 7 9 11 14 19 23 20 16 12 10 11 10 8 8 8 8 8 6 5 5
22 20 21 20 20 19 17 17 16 15 15 15 14 13 12 11 10 9 9 8 8 7 7 6 6 6 5 5 5 5 5 4 3 3 3 3 3 3 3 3 4 5 7 10 12 13 19 22 19 15 11 10 11 9 8 8 8 8 8 5 4 4
22 21 20 19 18 16 16 16 15 14 14 13 13 12 11 10 9 9 8 7 7 7 7 6 6 7 6 6 6 6 6 4 3 3 4 4 4 4 4 4 4 5 7 11 13 13 18 22 19 14 12 11 11 9 8 8 8 7 7 4 3 3
21 21 20 18 17 16 16 15 15 14 13 12 11 11 10 10 9 9 8 8 7 7 7 6 6 7 7 7 7 7 5 3 3 3 4 4 4 4 4 5 5 5 8 11 13 13 17 22 19 14 12 11 11 9 8 8 7 6 5 4 2 2
21 21 19 17 16 15 15 15 14 13 12 11 11 10 10 10 10 9 9 8 8 8 8 7 7 7 7 8 8 7 5 4 4 3 4 4 4 5 5 6 6 7 9 12 14 13 16 21 19 14 12 10 10 9 7 6 5 5 4 3 2 2
22 21 19 17 16 14 14 13 13 12 11 11 11 11 10 10 10 9 9 9 8 8 8 8 7 7 7 8 8 7 6 5 4 4 5 5 5 6 5 6 7 9 11 13 14 14 16 20 20 15 12 10 8 8 7 6 5 4 3 1 1 2
22 20 18 17 15 14 13 13 13 12 11 11 11 11 10 10 10 9 10 10 9 9 9 9 8 7 7 8 8 8 7 6 6 6 6 5 7 7 5 6 7 10 13 14 14 15 16 19 20 16 12 10 8 8 8 7 6 5 3 1 1 2
21 19 17 16 14 13 12 12 13 12 12 12 13 12 11 11 11 11 12 12 11 10 10 10 9 8 8 8 8 8 6 6 6 7 7 7 7 7 6 7 8 10 14 14 12 13 15 17 18 16 13 9 7 7 7 7 6 4 2 0 1 1
19 17 15 14 13 12 12 12 12 13 13 13 13 12 12 11 11 12 13 13 12 12 11 11 10 9 9 9 9 9 7 6 7 7 8 8 9 9 8 8 8 10 13 14 12 11 13 15 16 15 12 9 7 6 5 4 4 3 1 0 1 1
15 14 13 12 12 12 12 11 11 12 13 13 13 12 11 11 11 12 13 13 13 13 13 13 12 10 10 10 9 9 9 8 8 8 9 10 11 11 10 10 9 9 11 13 11 10 12 13 14 13 11 8 6 5 4 3 4 2 1 1 1 1
13 12 11 10 11 10 10 10 11 12 13 13 12 11 10 10 11 12 13 14 14 14 14 14 12 11 10 10 9 9 9 9 10 11 11 12 13 12 11 11 10 10 11 12 11 11 12 13 13 11 10 8 6 5 5 3 4 3 1 0 1 2
12 11 10 9 9 9 10 10 10 11 12 11 11 10 9 9 10 12 14 14 14 14 15 14 12 12 11 9 10 10 10 10 11 12 12 11 12 11 11 11 10 10 10 11 10 10 12 13 11 10 8 8 8 7 7 4 3 4 3 2 2 1
13 12 10 9 9 9 9 9 9 10 10 9 9 9 9 9 10 11 13 14 14 15 15 14 12 11 11 10 10 11 11 11 11 12 12 11 11 11 11 11 10 10 10 11 10 10 11 11 11 9 7 8 9 9 9 7 4 4 5 5 4 4
13 11 10 8 7 6 6 6 8 8 8 8 8 8 9 9 10 11 12 13 14 15 15 14 12 11 10 11 10 11 11 11 11 13 12 10 10 11 11 11 10 10 11 12 12 11 10 10 10 10 7 8 8 8 9 7 6 6 6 6 6 6
11 9 8 6 5 4 4 5 6 6 6 7 7 7 8 9 10 11 12 12 13 14 14 12 11 10 10 11 10 11 12 11 11 13 12 10 10 12 12 11 10 10 11 13 12 11 11 11 10 9 8 8 8 6 6 6 5 6 7 7 7 7
9 7 6 6 5 4 5 5 6 6 6 7 7 7 8 9 10 11 12 12 13 12 12 11 11 11 10 11 11 11 12 11 12 12 12 11 11 12 13 12 11 10 11 12 12 11 11 13 12 10 9 8 8 8 7 6 6 7 7 7 8 9
9 8 7 7 5 5 6 6 6 6 6 6 7 7 8 9 10 10 10 11 12 11 10 11 11 11 11 11 12 12 13 13 12 13 13 12 11 12 13 13 13 12 11 10 9 10 10 13 13 11 11 10 9 10 10 10 10 10 9 8 8 10
11 10 9 8 7 7 6 6 7 7 7 7 6 7 8 8 9 9 9 10 10 10 10 10 10 10 10 11 12 13 13 14 14 14 14 12 11 11 14 15 15 14 12 10 9 9 10 11 12 13 13 11 11 11 11 11 11 12 12 11 9 10
12 11 10 10 9 8 7 7 9 9 8 7 7 7 7 7 8 8 8 8 9 10 9 9 9 9 9 10 12 12 12 13 14 14 13 12 11 12 14 16 17 16 14 12 11 11 11 12 12 12 12 11 10 10 10 10 10 11 12 13 12 11
14 13 12 12 11 9 8 6 7 9 9 8 7 6 6 6 7 7 7 8 9 9 9 8 8 9 9 10 11 11 11 12 13 14 14 14 13 14 15 16 19 19 16 15 14 13 13 12 12 12 11 11 10 9 9 9 10 11 11 12 12 11
15 15 13 13 12 10 8 6 5 7 8 7 6 5 5 5 6 6 6 7 8 9 9 9 9 9 8 9 10 10 9 8 9 11 13 14 15 16 17 16 19 21 18 16 15 14 13 12 12 12 11 10 9 8 8 9 9 9 10 10 10 10
16 15 15 14 12 11 10 9 6 6 6 6 5 5 5 5 5 5 5 7 8 8 9 10 10 8 7 8 9 8 6 4 5 7 9 12 14 16 16 16 19 21 18 17 16 14 12 11 11 11 10 9 8 8 7 7 8 8 8 9 9 9
16 16 17 15 14 13 12 10 8 6 6 5 6 6 6 6 6 6 6 7 8 9 10 10 10 9 8 7 8 7 6 4 4 5 8 9 10 12 13 14 16 18 17 16 15 13 12 10 10 10 9 8 7 7 6 6 6 6 6 6 7 7
18 19 19 17 16 15 14 12 10 9 8 7 8 7 7 7 7 7 6 7 8 9 10 10 10 11 10 8 8 7 6 6 6 6 7 7 6 7 8 10 12 12 13 13 12 12 12 11 11 11 10 7 6 5 5 5 5 4 2 2 2 2
21 21 21 19 17 16 15 13 9 7 7 7 7 7 7 7 8 8 8 6 6 7 8 9 9 9 9 7 6 5 4 6 7 7 6 4 4 4 6 7 9 10 12 12 12 12 12 12 12 12 12 10 7 6 5 5 6 4 2 2 2 2
24 23 22 21 18 16 15 12 8 5 4 4 4 5 6 8 10 10 9 7 5 5 6 7 7 6 6 5 4 1 2 5 6 5 5 3 3 3 3 4 6 7 9 10 11 10 10 11 11 11 11 11 9 8 7 5 6 5 3 4 4 4
25 24 23 21 19 16 14 12 9 7 5 3 3 3 5 8 9 10 9 8 6 5 5 5 5 5 5 5 2 2 4 6 5 4 4 2 1 1 1 1 1 2 3 5 7 8 8 8 8 9 9 9 9 9 7 6 6 5 4 4 4 4
24 24 23 21 19 16 15 13 11 9 6 5 6 5 5 7 8 9 9 8 7 6 6 5 5 5 5 4 2 3 5 5 5 4 4 3 2 1 2 2 2 1 1 1 0 3 4 3 3 5 6 7 8 9 8 8 6 6 6 6 6 5
23 23 22 21 18 17 16 15 15 13 9 8 8 7 7 8 7 8 7 7 6 6 7 6 6 5 5 5 3 3 3 3 3 3 3 3 3 4 5 6 6 4 1 2 3 3 4 4 2 1 3 4 4 6 6 6 6 5 5 5 5 5
23 23 23 22 20 19 19 18 17 16 13 10 8 8 8 8 6 6 6 6 6 6 7 7 6 5 6 5 3 2 2 1 1 2 2 2 3 4 5 5 4 2 1 3 4 5 5 5 4 3 3 3 2 2 2 2 2 2 3 3 3 3
25 25 25 25 24 22 21 20 19 18 15 11 9 8 8 6 5 6 6 6 7 7 6 6 7 7 7 7 4 2 1 2 2 2 3 3 4 4 4 3 3 4 4 4 4 4 3 3 3 3 3 3 3 3 2 2 2 2 2 3 3 3
29 30 30 29 26 24 22 20 18 18 16 12 9 9 8 6 5 5 6 6 6 6 6 6 6 7 8 7 4 3 5 7 8 9 8 8 8 9 9 9 8 7 6 5 5 4 4 4 4 3 3 3 3 3 2 2 1 1 2 2 2 3
33 34 33 31 29 26 22 19 16 16 16 11 8 10 9 6 5 5 5 5 5 5 5 5 6 7 7 7 6 7 9 10 10 10 9 8 8 9 9 9 8 7 7 6 5 5 5 4 4 4 3 3 2 1 0 1 1 1 2 2 2 3
35 36 36 34 30 25 20 18 16 17 15 10 9 12 11 8 6 6 6 6 6 6 6 6 7 8 9 9 9 9 9 9 9 9 8 7 7 7 8 8 7 6 6 6 5 5 5 4 4 4 3 3 3 2 2 3 3 3 3 3 3 4
35 37 35 30 25 20 19 20 18 17 16 13 13 16 14 11 8 7 8 7 7 7 7 8 8 9 9 9 9 8 8 8 8 8 7 7 7 8 8 8 7 7 6 6 6 5 5 5 5 5 4 4 3 3 4 4 4 4 4 5 5 6
35 36 33 26 23 24 28 28 22 19 19 17 17 18 15 12 11 10 10 9 8 8 9 9 9 9 9 9 8 8 8 8 8 8 8 8 8 9 9 9 9 9 8 8 8 7 7 7 7 6 6 5 4 5 6 6 6 6 7 7 8 9

ECMWFFLT2_850_spd_024.txt.gz
Wind_Speed
24 23 23 22 21 20 19 19 19 19 18 17 16 15 14 13 12 11 10 10 8 7 6 6 6 6 5 5 5 5 5 5 5 4 3 2 2 2 3 3 3 5 8 10 12 16 19 19 16 14 11 8 6 7 9 8 8 8 8 8 7 7
23 22 22 20 20 21 20 20 19 19 18 16 16 15 14 13 13 12 10 9 7 6 6 5 5 4 4 4 4 4 4 4 4 3 3 3 2 2 3 3 3 4 7 9 10 13 17 18 16 13 11 8 7 7 9 8 8 8 8 7 6 6
22 22 21 21 21 21 21 20 19 19 18 17 16 15 15 14 13 11 10 8 7 6 5 4 4 3 3 3 2 3 3 3 2 3 3 4 3 3 2 3 4 4 6 8 9 11 15 18 15 12 10 8 7 7 8 9 9 8 8 7 5 5
22 21 21 21 21 21 21 20 19 19 18 17 16 15 14 13 13 11 10 8 7 6 5 4 4 3 3 2 2 2 2 1 1 2 3 4 3 4 3 3 4 4 6 8 8 10 14 16 15 11 9 8 6 7 9 9 8 8 7 6 5 4
21 21 21 21 22 21 20 19 19 18 17 16 15 14 14 13 12 11 10 8 6 6 5 4 3 3 3 3 2 2 2 1 1 1 3 4 4 4 4 4 4 5 6 7 8 9 13 16 14 10 10 9 7 8 9 8 8 7 6 5 5 4
21 22 21 20 20 19 18 18 16 16 15 14 14 13 13 12 11 10 9 7 6 6 5 4 3 3 3 3 3 3 2 2 2 1 2 3 4 4 5 5 5 6 6 7 8 9 12 15 14 10 10 10 8 8 8 7 6 6 5 5 4 4
22 21 20 18 18 16 16 16 15 14 13 13 12 12 11 11 10 9 8 7 6 6 5 5 4 3 3 3 3 3 3 3 2 2 2 3 3 4 4 5 6 7 7 8 9 9 12 15 14 11 9 9 8 7 7 7 6 5 4 4 4 4
21 20 18 17 15 15 14 14 14 13 12 12 12 11 9 9 9 8 8 7 6 6 6 5 5 4 3 4 4 4 3 3 3 3 3 3 3 4 4 4 6 7 8 9 9 9 11 14 14 11 8 8 7 7 6 5 5 4 3 4 4 4
21 19 16 16 15 14 13 12 13 12 12 12 11 10 9 8 8 8 8 7 7 6 7 7 7 5 4 4 5 4 4 4 4 4 5 5 5 5 4 4 5 8 9 9 9 9 11 12 12 10 8 7 6 6 5 4 4 3 3 4 4 4
19 17 16 15 14 13 12 12 12 12 12 11 11 10 10 9 9 9 8 8 8 8 9 9 8 6 5 5 5 5 5 4 5 5 6 7 7 7 6 4 5 8 10 10 9 9 10 11 12 10 8 7 6 5 4 4 4 4 4 4 4 4
18 16 15 14 13 13 12 12 11 11 12 11 11 11 10 10 10 9 9 10 10 9 10 9 8 7 6 5 6 6 6 6 7 6 7 7 7 7 6 5 5 7 10 11 9 9 10 11 13 11 9 7 7 6 5 5 6 5 5 4 4 5
17 15 14 13 12 12 11 11 10 11 11 11 11 11 11 11 11 10 11 12 10 9 10 9 8 6 5 6 6 6 8 9 9 7 7 7 7 7 7 6 6 6 9 11 9 9 10 11 12 12 10 8 7 7 5 5 6 6 5 5 5 5
17 14 13 11 11 11 11 11 11 11 11 11 11 11 11 11 11 9 10 11 9 10 11 10 8 6 7 8 8 8 8 9 9 8 7 8 8 8 8 7 6 6 7 9 10 9 10 11 12 12 10 8 7 6 5 4 5 5 5 5 4 4
15 13 12 11 11 11 11 11 11 11 12 12 11 12 12 11 10 9 10 10 9 10 11 9 7 7 8 9 10 10 8 8 8 7 7 8 8 8 9 7 7 7 7 8 9 10 10 11 12 12 10 8 7 7 6 5 5 5 5 4 3 2
14 13 12 11 11 11 10 10 10 11 10 10 10 11 11 10 10 8 9 10 8 8 9 8 7 6 7 9 11 10 9 8 7 6 7 8 7 8 9 8 8 8 8 8 9 9 10 10 12 12 10 8 8 8 7 7 6 5 5 3 2 2
14 13 12 11 10 10 8 8 9 9 9 9 9 9 8 7 8 7 7 9 7 6 7 7 6 6 7 9 10 9 10 9 7 6 7 8 8 8 8 9 9 9 9 10 10 10 10 10 11 11 10 8 7 7 8 8 7 7 6 5 5 4
13 13 11 11 10 8 7 7 8 9 8 8 7 7 6 7 8 8 7 8 7 5 5 6 7 8 8 8 9 10 11 10 8 7 7 9 9 8 8 9 10 10 10 11 11 11 11 11 11 11 10 8 6 6 6 6 6 6 6 6 6 6
13 12 11 11 10 8 6 6 7 8 8 7 6 6 6 8 8 8 7 7 7 5 4 5 7 8 9 8 8 9 10 10 10 9 8 9 9 9 9 9 11 11 11 12 12 13 12 12 12 12 11 9 7 7 6 5 5 6 6 6 7 7
13 12 11 11 10 7 5 4 5 6 6 5 5 6 6 7 8 7 7 7 6 5 4 5 6 7 8 8 9 9 9 10 11 10 10 10 10 11 10 10 11 12 12 12 12 13 12 12 12 13 13 10 8 7 6 6 6 6 7 7 8 8
14 12 11 11 8 5 3 3 3 5 5 3 3 4 4 5 5 5 5 6 6 4 4 5 5 6 7 8 9 10 10 11 11 12 11 11 12 12 12 11 12 13 13 13 13 13 13 12 13 13 11 9 9 7 6 6 6 6 7 7 8 9
13 11 11 9 6 4 3 2 4 5 4 4 2 2 2 2 3 3 3 4 5 4 3 5 5 5 6 6 8 9 10 10 10 11 12 12 13 14 13 12 12 13 13 13 14 14 14 14 14 14 11 9 8 7 6 6 5 5 6 7 8 8
13 11 11 9 6 4 3 3 4 5 5 4 2 1 1 0 1 2 3 3 2 2 3 4 3 3 3 4 6 6 6 7 8 9 11 12 13 14 13 12 13 13 14 15 15 15 16 17 17 14 11 9 7 6 7 6 5 5 6 6 7 7
14 13 11 10 8 6 4 4 5 5 4 4 3 2 2 2 2 1 2 2 3 2 1 2 1 1 2 4 4 4 4 6 7 8 9 11 13 13 13 12 12 13 15 16 16 17 18 18 16 12 9 9 7 6 6 5 4 4 4 5 5 6
15 14 12 11 10 7 6 6 7 6 4 4 4 4 4 4 4 3 2 2 3 2 1 1 2 2 3 3 4 4 5 5 5 6 6 8 9 9 10 10 11 12 14 15 15 17 18 16 14 11 9 8 7 6 5 4 3 2 2 2 2 3
16 15 14 13 11 9 7 7 8 6 4 4 4 5 5 5 4 4 3 2 3 3 3 3 4 4 5 5 6 6 7 7 7 6 5 5 5 6 6 7 9 10 12 14 13 15 16 14 13 10 7 7 6 5 4 3 3 1 0 1 2 2
18 17 16 15 12 10 9 8 7 4 3 4 5 5 6 6 5 4 4 3 2 3 4 4 4 5 5 5 6 6 7 7 6 5 4 4 3 3 3 5 7 8 9 11 10 12 13 10 9 7 6 6 6 4 3 3 3 3 3 3 4 4
19 18 17 15 13 11 10 9 6 2 2 4 5 6 7 7 7 6 6 5 4 3 2 3 3 3 3 3 3 3 4 3 1 2 3 2 2 2 2 2 3 4 5 7 7 8 10 7 6 6 6 6 5 4 3 3 3 4 5 5 4 4
20 18 17 16 14 13 11 9 6 3 1 2 4 5 6 7 7 7 7 7 6 4 2 1 2 2 2 2 2 1 1 0 2 1 2 3 3 4 4 4 3 2 1 1 2 5 6 6 6 6 6 6 5 4 3 3 4 5 5 6 6 4
20 19 18 17 16 14 12 9 6 3 2 3 5 6 6 6 6 7 8 7 6 4 3 1 1 2 2 1 1 1 1 1 2 2 2 4 3 3 3 3 4 4 5 5 3 1 2 2 3 3 4 5 4 3 3 4 5 4 3 4 6 5
21 20 19 18 17 16 13 10 6 3 3 5 6 6 6 6 6 7 7 7 6 4 3 2 2 2 1 0 2 3 3 2 2 1 1 2 1 0 0 1 1 2 3 5 7 7 6 6 5 4 4 4 3 2 2 3 3 3 2 3 5 7
22 21 20 19 19 17 14 10 7 4 3 5 6 8 8 7 7 8 7 7 6 5 4 3 2 1 1 2 2 3 3 2 2 1 2 1 0 1 2 2 2 4 6 7 8 9 9 9 8 7 7 7 6 5 5 4 4 4 4 4 5 7
23 23 22 21 20 18 15 12 8 5 4 5 6 8 9 9 9 9 8 7 6 5 4 3 2 1 2 2 1 2 2 1 2 4 4 4 4 3 3 4 6 8 8 8 8 7 7 7 8 8 8 8 8 6 5 5 4 3 3 3 3 5
25 25 24 22 21 19 17 14 10 7 5 4 5 7 8 8 9 9 8 6 6 4 3 3 2 1 2 2 1 2 2 4 7 8 9 9 9 10 10 10 10 10 9 9 7 6 6 7 8 9 9 8 7 6 5 4 4 3 3 3 3 3
28 27 25 24 22 20 18 14 10 7 6 6 7 5 3 4 5 7 7 5 4 3 2 2 1 1 2 2 1 2 5 8 9 9 9 10 10 11 11 11 11 11 10 10 9 8 8 8 9 9 9 9 8 7 6 6 5 5 5 5 5 4
29 27 25 23 20 16 13 11 11 10 9 9 8 6 4 3 3 5 6 4 3 2 1 1 1 3 5 5 4 5 6 7 8 8 8 8 8 9 10 10 10 10 9 10 9 9 9 8 8 9 9 9 9 9 9 9 9 9 8 8 7 6
27 25 23 20 17 15 15 17 17 17 15 14 11 9 7 7 5 5 4 3 2 1 0 0 2 5 6 7 7 7 6 5 6 6 6 7 8 9 10 10 10 10 10 11 10 10 10 10 10 10 10 11 11 11 11 11 11 11 11 11 10 10
24 22 22 22 22 23 25 26 25 22 21 19 16 13 11 9 8 6 5 4 3 2 1 1 2 4 6 7 7 7 6 5 4 5 6 8 8 10 11 12 12 12 12 13 13 12 12 12 11 11 11 11 11 11 12 12 12 12 11 12 12 11

ECMWFFLT2_850_spd_030.txt.gz
Wind_Speed
20 21 21 21 20 20 20 18 17 15 14 15 15 15 15 15 15 14 12 11 10 9 9 9 9 9 8 8 7 7 7 6 6 5 5 5 3 2 2 1 1 2 2 3 3 4 5 6 7 9 10 10 10 8 6 7 7 7 4 4 5 1
19 20 20 19 19 19 19 17 15 15 14 14 14 14 15 15 14 13 12 10 9 9 9 9 9 8 8 8 7 7 6 6 6 6 5 5 4 3 1 1 0 1 1 1 1 1 2 4 5 6 9 10 10 8 7 7 6 6 5 5 3 2
16 18 18 16 16 17 16 14 13 14 13 13 15 15 15 15 14 13 12 10 9 10 10 10 9 9 9 8 7 7 6 6 5 5 5 4 3 2 1 0 0 1 1 1 2 3 3 3 4 5 7 8 8 8 8 8 6 6 4 5 3 2
14 15 16 15 14 13 13 11 10 11 11 12 14 15 14 14 14 13 12 11 10 10 10 9 9 9 9 8 7 7 6 5 5 4 3 3 2 2 1 0 0 2 1 2 2 4 5 5 6 6 6 7 8 8 8 8 6 5 4 4 3 1
13 13 14 15 14 11 11 9 7 8 10 12 12 13 14 13 13 13 12 11 10 10 10 9 9 9 9 7 7 7 6 6 5 4 4 4 4 3 3 2 1 0 1 2 2 4 6 6 6 6 6 7 8 9 8 8 7 6 5 4 3 1
12 12 13 13 11 10 9 7 5 6 8 11 12 12 14 13 11 12 12 11 10 10 10 9 9 9 8 8 8 8 7 7 7 6 6 6 6 6 5 4 3 3 3 3 2 2 4 5 6 6 6 7 8 9 9 8 7 7 5 4 2 1
11 10 9 9 10 10 8 7 7 8 10 11 12 12 13 11 8 9 10 9 9 8 8 9 9 9 8 8 8 8 8 8 8 7 7 8 8 7 6 6 5 5 4 3 2 2 2 4 6 7 6 6 7 8 8 7 6 6 5 4 2 1
11 9 7 7 10 12 10 10 10 10 12 12 11 11 11 9 7 8 9 9 8 7 8 7 7 8 7 7 7 7 7 7 8 8 8 8 7 7 6 6 5 5 5 4 3 4 4 4 5 7 7 7 8 8 6 6 6 5 4 4 3 2
10 9 8 8 10 12 12 11 11 10 8 8 9 10 9 8 7 9 10 9 9 9 9 8 7 7 6 6 6 8 8 7 8 8 7 7 7 6 6 5 5 6 6 6 5 5 5 5 5 6 7 7 9 8 6 6 6 5 4 3 3 2
11 10 10 10 10 12 11 10 11 10 7 6 7 7 7 7 8 8 9 9 10 10 9 8 8 6 5 6 7 9 10 9 9 8 7 6 7 7 6 6 6 7 7 7 6 6 5 5 5 6 6 7 7 8 7 6 5 4 4 3 3 3
13 11 10 11 10 11 10 9 10 8 7 7 6 6 6 8 9 8 8 9 9 9 8 8 7 6 6 7 7 9 11 11 10 9 8 8 8 8 7 6 6 7 8 8 7 6 6 6 6 6 6 6 6 7 6 6 5 5 4 4 4 4
13 11 11 11 11 11 9 8 8 7 7 6 6 7 7 8 8 7 8 9 9 9 9 8 7 7 8 8 9 11 11 11 11 10 9 8 8 9 8 7 6 7 9 9 8 7 7 6 6 6 6 5 5 5 5 5 5 5 5 5 5 4
12 12 12 11 11 10 8 6 6 7 7 6 7 8 7 8 8 7 8 9 9 10 10 9 8 9 9 9 10 12 10 10 10 10 8 7 8 9 9 7 6 6 7 9 8 8 7 6 7 6 5 5 4 4 4 4 5 5 5 5 5 4
13 14 13 12 11 8 7 7 7 6 6 6 7 8 7 8 8 7 9 8 8 10 10 10 9 9 10 9 9 11 11 9 10 9 8 8 9 9 8 6 6 5 6 8 7 7 7 6 6 5 5 5 4 4 3 4 4 5 5 5 5 5
14 14 13 13 10 7 7 7 6 5 4 5 6 6 7 7 6 7 8 6 6 8 9 9 9 9 11 10 9 11 11 9 9 9 9 9 9 9 8 7 7 7 7 7 7 7 6 6 6 5 5 5 4 4 3 4 4 5 5 5 5 6
15 14 13 12 10 8 8 7 6 4 3 4 4 4 5 6 5 4 5 5 5 6 7 7 8 10 12 11 10 10 10 9 8 7 7 7 9 8 8 9 9 9 8 8 7 7 7 7 7 7 6 6 7 6 5 4 5 5 5 6 6 7
15 15 13 12 11 9 7 6 5 4 4 4 3 3 3 4 3 2 2 2 2 3 5 6 7 8 10 10 9 8 9 9 7 7 7 7 9 8 7 8 10 10 9 8 7 7 7 7 8 8 9 9 9 8 8 8 8 7 6 6 7 7
16 15 13 13 11 9 8 7 6 5 4 4 3 2 2 2 2 2 2 1 1 2 4 5 6 7 9 10 9 8 8 8 7 7 7 5 6 7 7 7 8 9 9 8 7 6 7 7 8 8 8 10 10 8 10 11 10 8 7 7 6 6
15 14 14 12 10 9 9 8 7 6 5 4 3 2 1 1 2 2 1 1 1 2 3 4 5 7 9 10 9 8 8 7 7 8 8 5 4 5 5 6 7 8 9 8 8 9 8 7 7 7 7 9 9 7 8 10 10 8 7 7 6 6
15 15 14 12 11 10 9 9 8 7 6 5 3 3 4 3 3 1 1 1 1 2 3 4 4 5 7 8 8 8 7 7 7 7 8 7 5 5 5 5 5 6 9 10 10 10 10 9 8 8 7 7 7 6 8 10 10 8 6 6 5 5
16 16 15 14 13 11 11 11 10 7 6 5 4 3 3 3 4 4 3 2 2 2 2 4 4 4 5 6 7 7 7 7 7 7 8 7 7 7 6 5 4 5 8 10 10 11 11 10 8 8 8 7 6 6 8 10 9 7 5 5 4 3
18 17 15 15 14 13 12 11 10 8 7 7 6 5 3 2 3 5 5 4 3 2 2 3 3 4 4 4 4 5 5 5 5 6 6 5 6 7 6 5 4 4 5 7 9 10 10 9 8 7 7 6 5 6 8 10 9 6 5 4 3 2
18 17 16 15 14 12 11 10 9 9 9 9 8 7 6 4 4 6 7 6 5 4 3 3 3 3 2 2 3 2 2 2 3 3 4 4 5 6 6 6 5 6 6 6 7 8 9 8 7 8 7 7 6 6 7 8 8 7 6 5 3 2
17 16 15 15 14 12 11 12 11 10 11 10 10 9 8 7 7 7 7 7 7 6 5 4 3 2 2 1 2 2 2 2 2 2 2 2 3 4 5 6 6 7 7 7 7 7 8 9 9 7 7 6 6 7 8 8 7 6 5 4 4 3
16 15 14 15 15 13 12 12 12 12 12 11 12 11 10 9 9 8 7 7 7 7 7 6 4 3 2 2 2 3 3 3 3 3 2 1 2 2 4 5 6 7 7 7 6 7 8 9 10 9 8 6 5 7 8 7 8 6 5 4 4 4
16 15 15 16 15 13 11 10 11 13 12 12 12 11 11 11 10 8 7 7 7 7 8 7 6 5 3 3 3 2 1 2 3 3 4 3 2 2 2 2 4 5 6 7 7 7 8 9 10 11 11 9 7 7 5 6 7 6 6 5 5 6
17 15 15 15 14 12 12 11 11 12 12 12 12 12 13 13 12 10 8 8 6 6 8 7 6 5 3 1 1 2 3 2 2 0 3 3 3 3 2 2 3 3 4 6 7 7 8 8 8 9 11 11 10 8 6 7 7 7 8 7 6 7
17 16 15 15 14 13 13 13 13 12 12 12 12 14 14 13 12 11 10 9 7 6 7 7 6 4 2 2 3 4 3 3 2 2 2 3 3 3 3 3 3 3 3 4 6 6 7 6 5 6 8 9 9 9 7 7 8 7 6 8 8 7
18 17 15 14 13 13 12 13 14 12 12 12 13 14 14 13 12 11 10 10 9 7 6 6 6 5 4 3 4 4 4 3 3 4 4 3 3 3 3 3 3 3 3 4 5 5 6 5 4 4 6 8 8 8 6 6 7 7 5 7 9 9
17 17 16 14 13 13 12 13 14 12 11 12 13 14 14 13 12 11 10 9 9 8 6 6 6 6 6 5 5 5 4 4 4 5 4 4 4 4 3 3 2 2 2 3 5 5 6 6 6 5 5 6 7 7 7 6 6 6 5 6 7 9
14 14 16 15 13 13 13 14 14 12 11 11 12 13 13 13 12 12 11 9 8 8 8 7 7 8 8 7 7 7 7 6 6 6 5 4 5 4 4 3 2 2 2 2 4 6 6 7 7 6 6 6 6 6 6 6 6 6 6 6 8 9
10 10 13 14 13 13 13 15 15 12 11 10 10 11 11 12 12 12 11 10 9 8 8 9 9 10 9 8 8 8 8 7 7 6 6 5 5 4 4 4 3 2 1 2 3 4 5 5 6 6 6 6 6 5 4 4 5 6 6 6 8 9
5 8 10 12 13 12 13 16 16 13 11 10 9 9 10 10 11 10 9 10 10 9 9 10 10 11 10 8 8 9 9 8 8 7 6 5 5 5 5 5 5 4 3 3 4 4 4 5 6 7 7 6 6 5 4 5 5 5 6 7 8 8
8 12 12 13 14 11 12 15 15 13 11 9 8 8 10 9 8 8 9 10 11 11 11 11 12 12 11 10 10 12 12 11 10 10 9 9 9 10 9 7 6 6 5 5 5 5 5 6 7 8 8 7 6 6 6 6 6 5 5 6 7 7
12 15 12 11 11 9 11 14 15 13 11 9 7 8 10 9 7 7 8 10 10 11 11 12 13 14 13 12 13 14 13 12 11 10 11 12 12 13 12 9 8 9 8 8 8 9 9 9 10 10 9 9 8 8 8 8 7 6 5 5 6 7
12 13 10 9 9 9 11 14 15 13 11 9 7 8 9 8 6 6 6 8 9 10 11 12 14 15 15 14 14 13 12 10 10 10 10 12 12 13 12 11 11 11 12 12 12 12 12 12 12 12 12 12 11 11 11 10 9 9 8 7 6 7
12 12 12 10 10 10 12 14 16 14 12 10 8 8 9 6 4 3 5 7 8 9 11 12 14 15 15 14 13 11 10 9 9 9 10 11 12 12 12 12 12 12 13 13 13 14 14 14 14 15 15 15 14 13 13 12 11 11 10 9 7 6

ECMWFFLT2_850_spd_033.txt.gz
Wind_Speed
21 20 19 20 19 16 15 16 15 15 16 15 13 12 10 10 10 10 10 10 9 9 9 9 9 8 8 8 8 8 8 7 6 5 5 4 4 2 2 1 1 1 2 3 6 9 10 11 11 10 11 11 10 10 8 7 6 5 4 5 6 5
18 18 16 16 18 15 15 16 15 14 14 13 12 10 9 9 10 10 9 9 9 8 8 9 9 8 8 8 8 8 8 7 6 5 5 4 3 2 2 1 1 2 3 4 4 6 5 7 10 10 10 11 10 7 5 7 6 5 5 6 8 6
14 14 13 13 18 17 16 17 14 13 13 12 12 10 9 10 10 9 7 6 6 7 7 8 8 7 7 6 7 7 7 6 5 5 4 4 3 2 2 1 1 2 5 7 8 6 2 3 7 10 10 10 9 6 5 7 6 5 6 7 8 5
13 13 11 12 17 15 14 14 12 11 10 11 12 10 9 9 8 7 6 6 6 5 6 7 8 8 7 5 5 5 6 5 5 4 4 4 4 3 3 3 3 3 5 7 8 6 6 5 6 8 10 9 7 7 7 7 5 5 6 6 6 3
11 14 14 13 15 13 12 12 12 11 10 11 11 9 9 9 8 7 8 9 11 11 10 10 9 8 7 6 5 5 5 5 5 5 5 5 5 4 4 3 3 3 5 5 5 8 9 8 8 7 8 8 7 8 8 6 6 7 7 8 6 3
13 18 17 13 14 15 14 12 11 11 10 11 11 11 11 10 9 10 12 13 15 15 13 11 9 7 6 5 5 6 6 7 7 7 6 5 6 5 4 4 4 3 5 6 7 9 9 9 8 8 8 9 9 9 9 8 7 8 9 8 5 3
13 15 13 12 13 14 13 11 11 11 11 12 12 11 11 10 11 12 15 15 13 12 11 9 7 7 6 6 5 5 7 9 8 8 7 6 5 6 5 5 5 4 6 7 6 7 8 9 9 8 9 9 10 10 10 9 7 7 9 7 4 4
11 11 12 14 13 12 13 12 12 12 12 12 12 11 12 12 13 14 14 12 10 10 9 7 6 7 7 7 7 6 9 10 9 7 7 5 4 7 7 6 7 6 6 7 7 6 7 8 9 9 9 9 10 10 10 9 8 7 8 7 5 3
10 10 13 14 13 13 12 12 12 12 12 12 12 12 12 13 14 14 13 11 10 9 8 7 6 7 7 7 8 10 11 10 8 7 6 6 7 8 9 9 7 7 7 6 6 7 7 7 8 9 9 9 10 10 9 9 9 8 8 7 4 3
9 10 11 12 13 13 12 12 12 12 12 11 11 11 12 13 14 13 13 12 12 10 9 8 6 6 7 8 9 10 11 10 8 9 9 8 8 7 7 8 6 6 7 6 6 7 8 7 8 8 8 9 10 10 9 9 9 8 8 7 4 4
9 9 11 11 13 14 13 14 13 13 12 12 12 12 12 13 13 12 12 12 13 11 10 9 7 7 7 8 9 9 9 10 10 12 10 7 7 5 6 7 6 6 5 6 6 6 7 8 9 9 8 9 10 9 9 9 9 8 8 8 5 5
10 10 10 10 12 13 13 12 14 14 12 11 11 11 11 12 11 12 12 12 12 11 11 10 9 8 7 8 10 9 8 9 11 11 9 7 5 5 5 7 6 5 5 6 7 6 7 8 9 8 9 9 8 8 8 8 7 7 8 8 6 5
11 10 10 10 11 12 11 11 12 12 11 10 10 9 10 10 10 11 11 11 9 10 11 11 10 9 9 10 10 9 8 8 9 9 8 6 4 4 6 7 6 6 6 6 7 7 7 8 9 9 8 8 8 8 7 6 7 7 6 5 5 6
11 11 10 10 11 11 11 10 10 10 10 10 9 9 9 9 10 10 11 9 8 10 12 11 11 10 9 10 11 9 8 8 9 8 7 6 4 5 6 4 4 5 7 7 6 6 7 7 8 8 8 8 7 7 7 6 6 6 5 5 7 7
12 12 11 10 11 11 11 9 8 8 8 8 8 7 7 8 8 8 9 8 8 10 11 11 12 12 10 10 11 9 7 8 8 7 6 6 5 5 5 3 3 5 7 7 6 7 8 8 9 8 9 7 7 7 6 6 5 5 7 5 6 6
12 12 11 11 11 10 10 9 7 7 7 6 6 5 5 5 5 5 6 6 8 10 10 10 11 13 12 11 10 9 6 6 5 5 5 5 6 6 6 6 6 7 7 7 7 8 8 9 9 7 8 6 6 7 5 6 6 6 7 5 4 5
12 12 11 12 11 9 10 8 7 6 6 5 5 4 3 3 3 3 4 5 6 8 8 8 9 10 11 9 9 8 7 4 3 5 5 5 6 7 7 8 8 7 8 8 9 8 6 7 7 5 6 5 6 7 5 6 6 5 6 5 5 6
13 13 12 12 11 10 10 8 7 7 6 6 4 3 3 2 2 3 3 3 4 5 5 6 6 7 7 7 6 5 6 7 6 7 7 6 6 8 10 10 10 9 9 9 8 9 7 7 7 5 5 5 6 6 4 5 5 4 4 4 5 7
15 14 13 13 12 11 11 9 8 8 7 6 5 4 4 3 2 2 2 3 3 3 4 4 4 4 5 5 5 3 4 7 8 8 8 7 6 9 11 10 11 11 11 10 9 10 10 8 6 6 5 4 5 4 3 5 6 5 4 5 5 6
15 15 14 15 14 12 12 10 10 9 8 7 6 6 6 4 3 2 2 3 2 2 3 3 3 4 4 4 4 5 4 5 7 8 9 8 7 8 9 9 11 11 11 12 12 12 10 8 7 7 6 3 3 3 3 5 7 4 2 4 5 4
16 16 16 16 15 14 14 13 12 10 8 7 6 6 6 5 5 5 4 3 2 2 2 2 2 3 3 4 5 5 5 4 4 5 7 7 7 8 8 8 9 9 11 13 13 12 10 9 9 9 8 5 4 4 4 5 6 4 2 2 3 3
18 18 17 17 16 16 15 13 12 11 9 9 7 6 6 6 7 6 5 4 3 2 1 1 1 1 1 3 4 4 4 4 4 4 5 7 8 8 8 9 10 10 11 13 14 12 11 10 9 8 8 6 5 5 5 5 6 5 4 2 2 1
19 20 19 18 17 17 16 14 12 11 11 10 9 9 8 7 8 7 6 4 3 2 2 2 1 1 0 0 1 2 2 4 4 4 5 6 7 8 9 10 11 12 12 13 12 10 9 10 9 8 6 6 7 7 6 7 7 6 5 2 0 0
21 21 21 19 17 18 19 17 14 13 12 11 12 12 9 8 8 7 6 5 4 4 3 2 2 1 1 1 1 2 3 4 5 5 5 4 5 6 8 9 11 11 11 10 9 9 10 10 9 6 5 6 9 8 7 8 9 7 4 3 1 1
21 21 21 18 17 19 18 17 16 15 14 13 12 11 10 9 8 7 7 6 6 5 3 3 2 2 2 1 1 1 2 2 3 4 4 3 3 3 5 7 9 10 10 8 8 7 8 9 9 6 5 5 5 5 7 9 8 5 4 4 2 1
22 22 22 18 16 18 17 16 17 16 15 14 12 11 10 10 9 7 7 6 6 6 5 5 4 2 1 1 0 1 1 2 1 3 4 4 4 4 4 4 6 8 9 8 8 7 5 6 7 7 6 4 2 4 8 10 8 6 7 6 4 4
22 22 22 19 16 17 17 16 16 14 14 14 12 12 12 11 9 8 8 7 6 7 5 5 4 2 1 0 1 2 3 4 2 3 4 4 5 6 5 3 3 5 6 6 6 6 5 4 5 6 6 6 4 4 8 10 8 8 8 8 6 6
20 19 20 18 16 16 17 17 15 13 13 12 13 14 13 12 11 10 8 7 5 6 5 4 4 3 1 1 3 4 4 4 4 4 3 4 5 6 5 4 3 3 3 4 4 5 5 4 4 4 5 6 5 5 6 7 8 9 9 10 8 6
20 19 19 18 17 17 17 17 15 13 13 13 14 15 13 12 11 10 9 8 6 5 4 4 3 3 2 2 3 3 2 4 6 5 4 4 5 5 4 4 3 2 2 2 3 3 3 4 4 3 3 4 4 4 5 7 8 8 10 11 9 7
20 19 20 18 16 16 16 15 13 13 14 14 15 13 12 12 11 10 9 9 7 5 3 3 3 4 4 3 3 3 1 3 5 6 4 5 5 5 4 4 3 2 2 1 2 2 3 3 4 5 3 3 4 3 4 6 7 7 9 10 9 9
21 21 23 20 17 16 15 13 12 12 14 15 15 13 12 12 11 10 9 8 7 5 4 4 4 5 5 5 4 4 2 2 3 4 4 5 5 4 4 4 4 3 2 1 0 1 2 2 3 6 5 3 4 3 3 5 5 6 8 9 8 9
20 21 22 20 18 17 15 12 12 13 13 14 14 13 12 12 11 9 8 7 6 6 5 4 4 5 6 6 5 4 3 2 3 3 4 5 5 4 4 3 4 5 4 3 3 2 3 3 4 5 5 4 4 4 4 4 5 5 8 9 9 9
16 19 21 20 18 18 16 13 13 13 13 13 13 12 12 11 10 8 7 6 5 5 5 5 5 5 6 6 5 5 4 3 4 5 4 5 6 6 5 4 5 5 5 5 6 5 5 6 7 7 7 7 6 6 7 6 6 7 8 9 9 9
15 18 20 19 17 17 18 15 13 14 13 12 13 12 12 11 9 8 6 6 5 5 5 6 6 5 5 6 6 7 7 6 5 5 5 7 9 9 7 6 8 8 7 7 7 7 7 8 9 9 9 9 8 7 7 7 6 7 8 8 8 8
14 18 19 18 17 17 17 16 14 13 12 11 12 12 11 9 9 8 6 6 6 6 6 6 6 7 7 7 8 9 7 7 7 6 7 8 9 11 10 8 8 8 8 7 7 6 6 7 8 10 10 9 8 8 8 7 6 7 7 7 7 6
14 18 17 16 16 14 15 16 14 13 12 12 11 11 10 9 8 7 7 6 6 6 7 7 7 8 8 9 10 10 9 8 8 8 9 9 9 10 10 9 8 8 7 7 7 7 6 7 7 10 11 10 9 9 9 9 8 8 9 7 7 6
16 16 14 14 14 11 12 15 14 13 12 12 11 11 10 10 8 7 6 6 6 8 8 8 8 9 10 11 10 9 8 8 8 8 8 8 9 10 10 10 10 10 9 9 9 9 9 9 9 10 12 11 10 9 10 10 9 10 10 9 7 6

ECMWFFLT2_850_spd_036.txt.gz
Wind_Speed
19 18 20 21 19 19 19 20 20 17 16 14 13 12 12 12 12 12 11 11 9 8 7 6 5 3 2 4 4 4 3 2 2 1 2 2 3 3 3 2 2 1 2 3 4 7 9 9 8 9 11 12 14 15 14 11 10 7 8 6 4 4
17 17 20 19 18 18 19 20 19 18 16 15 13 12 11 12 12 12 11 9 8 7 6 5 5 4 3 5 5 5 4 3 2 1 2 2 3 3 3 2 2 3 3 3 4 7 8 8 9 9 11 13 13 13 11 9 8 9 9 7 4 5
16 18 18 17 18 18 20 21 19 18 17 15 14 12 11 11 12 11 9 8 7 6 5 5 5 4 5 6 5 5 4 3 2 1 2 2 2 3 2 2 3 4 5 6 6 7 7 5 8 10 10 12 13 10 11 10 7 10 9 7 5 6
15 17 18 19 20 19 20 20 19 19 17 15 14 13 11 11 11 10 9 8 8 7 6 5 5 5 6 7 6 6 5 4 2 1 1 2 3 2 2 3 3 5 7 8 6 5 5 1 5 7 9 11 12 9 12 11 7 9 8 6 5 3
17 18 20 21 22 21 22 21 20 19 17 16 15 14 12 12 13 12 11 10 9 8 8 7 6 6 7 7 7 6 6 5 3 1 1 2 2 2 3 3 2 3 4 6 5 3 1 5 8 5 8 10 10 9 10 10 9 10 10 6 3 2
17 20 21 21 22 22 22 21 19 17 17 17 15 15 14 15 15 13 13 12 10 9 8 8 7 7 7 7 7 6 7 6 3 1 1 2 2 2 3 3 2 0 2 2 2 4 4 8 9 8 7 9 9 9 10 10 11 11 10 6 2 1
19 20 21 21 21 20 19 19 18 16 17 16 15 15 15 16 15 15 14 11 9 8 8 7 6 7 7 7 7 8 9 7 4 2 2 3 3 3 3 4 4 1 2 3 2 4 6 8 9 8 8 10 9 8 11 12 11 10 9 6 3 2
21 21 21 22 21 20 19 18 17 16 16 15 15 15 15 16 15 15 13 11 9 9 8 8 8 8 8 8 8 9 10 7 5 3 4 5 3 3 2 4 5 3 3 5 4 4 6 7 9 9 9 10 10 10 12 13 11 10 9 6 5 3
20 21 22 22 20 19 18 17 15 15 15 15 15 16 16 16 14 12 12 11 10 10 11 11 10 9 8 8 9 10 10 6 5 4 5 5 3 3 2 3 5 5 5 6 6 8 6 8 9 9 9 10 11 12 13 12 11 8 7 7 6 3
17 19 21 20 18 17 17 16 15 15 15 15 16 15 16 15 11 10 10 11 11 10 12 11 9 8 8 9 10 10 9 7 6 6 6 5 3 4 3 3 5 6 7 7 6 8 8 7 9 9 10 12 12 12 12 11 12 8 6 7 6 5
16 17 18 17 17 17 16 15 14 14 15 14 14 13 12 12 10 10 10 12 11 10 12 11 8 8 9 10 10 8 8 8 8 7 7 6 4 5 5 4 6 7 7 7 6 8 9 7 8 9 9 10 11 13 12 9 10 9 9 8 7 5
17 18 18 17 18 17 16 15 14 14 15 14 13 11 10 10 11 11 11 11 11 11 12 11 10 10 10 10 9 8 8 9 10 10 8 8 7 7 7 6 7 8 7 7 7 7 9 8 8 8 7 7 8 11 7 7 9 11 10 8 6 5
18 19 19 18 18 17 15 15 15 14 13 12 11 10 10 10 11 11 10 10 10 10 10 10 11 12 12 11 9 8 8 9 11 11 10 9 8 8 8 8 8 8 8 8 7 9 11 10 12 10 8 8 9 8 3 6 7 9 9 8 6 6
19 19 18 17 17 16 14 14 14 13 11 10 9 9 8 9 10 9 9 9 9 8 8 10 12 12 12 11 10 9 8 10 11 10 10 9 9 8 8 7 8 8 8 8 8 11 11 9 13 10 7 7 7 6 3 4 6 8 9 9 7 8
19 19 17 16 16 15 14 13 12 11 10 9 9 8 7 8 8 8 9 8 8 8 8 10 11 12 12 11 10 9 9 10 9 8 9 9 8 8 7 7 8 9 9 9 7 10 9 6 10 8 5 4 5 4 4 5 6 6 8 8 8 8
18 18 17 16 15 14 13 12 10 9 9 9 8 7 6 6 6 7 7 7 8 8 8 9 10 11 11 10 9 8 9 9 8 8 9 10 9 9 8 8 9 9 8 9 7 7 7 6 7 7 7 5 8 7 5 4 6 5 7 8 7 6
18 17 17 16 14 13 12 11 9 8 8 8 6 6 6 6 5 5 5 5 6 6 6 7 7 9 9 10 9 8 9 8 7 7 8 9 9 8 9 8 9 8 7 9 8 7 6 6 6 5 5 3 4 5 4 5 6 5 6 7 7 7
17 16 16 15 13 13 12 10 9 8 7 6 6 5 4 4 4 4 4 3 4 4 3 4 5 7 8 8 7 8 9 8 7 7 8 7 6 7 8 8 7 6 7 8 7 7 6 5 6 4 2 3 2 2 3 5 6 5 6 7 8 7
16 16 16 14 13 12 11 10 9 8 7 6 5 5 4 2 2 2 3 3 3 3 2 2 4 4 5 6 6 7 8 7 7 8 8 7 5 7 8 7 6 6 7 7 7 7 6 5 6 4 2 3 4 5 4 3 5 5 6 7 7 8
17 17 16 15 13 12 11 10 10 9 8 6 4 5 6 3 1 2 1 3 4 3 4 3 3 3 4 6 7 7 7 7 7 8 8 7 6 6 8 8 7 8 7 7 7 7 6 6 6 5 4 5 6 5 3 3 5 6 7 7 6 6
19 18 17 15 13 12 10 10 10 8 8 7 4 4 7 6 4 4 2 4 4 3 4 3 3 3 3 5 7 7 6 6 7 8 8 9 7 7 8 8 8 8 8 8 8 8 7 7 7 6 4 5 5 4 4 5 5 6 8 7 6 5
19 19 18 16 15 12 10 10 10 7 7 6 3 3 5 5 6 6 4 4 5 4 4 4 4 3 4 5 5 5 4 5 6 7 9 10 9 8 8 8 8 8 8 9 10 9 9 8 7 6 5 4 5 5 5 5 6 4 5 6 6 7
19 20 19 18 17 13 10 10 10 7 7 6 5 6 6 5 4 3 4 4 5 5 4 5 4 4 5 5 4 3 4 6 7 7 8 8 8 8 8 8 9 9 9 9 10 10 10 9 7 6 6 5 5 5 5 6 7 4 4 4 4 7
20 21 20 19 18 15 13 12 11 9 10 10 10 10 8 7 6 3 4 3 4 5 5 5 4 3 4 6 6 5 5 6 6 7 6 6 6 7 8 8 9 9 9 8 9 9 9 9 9 8 7 5 5 5 5 8 8 6 6 5 4 6
21 21 21 19 18 17 16 14 13 13 13 12 10 8 7 9 9 6 5 3 3 7 7 5 5 4 3 5 6 4 4 4 4 5 4 3 4 5 6 7 7 8 8 7 8 8 8 8 9 9 7 5 5 5 7 9 8 8 9 8 7 7
22 22 21 20 18 17 16 15 14 13 12 10 8 8 7 8 8 7 6 5 5 7 7 8 7 5 4 4 5 4 3 2 3 4 3 3 3 2 3 3 5 6 6 7 8 8 8 8 10 11 9 6 5 4 8 10 9 11 12 11 10 10
22 22 22 21 19 17 15 14 13 11 9 7 7 7 7 7 7 7 7 6 7 7 7 9 8 6 4 4 6 7 7 4 3 4 4 4 4 2 2 3 3 4 5 6 8 7 6 6 9 10 10 7 5 5 9 10 10 13 14 13 12 13
22 22 22 22 20 18 16 15 12 8 6 6 6 8 8 8 7 8 7 5 6 5 6 7 5 4 3 5 7 8 10 8 3 3 3 4 6 4 3 4 4 4 4 5 6 6 6 6 7 9 10 8 6 8 11 10 10 12 14 15 15 15
22 21 21 20 19 18 18 16 12 7 6 7 9 10 9 8 8 7 6 5 5 6 6 6 6 6 4 5 7 7 10 12 8 4 3 4 8 6 4 4 3 4 4 4 4 5 6 6 6 8 10 10 9 10 11 11 11 12 13 16 15 15
21 21 20 19 18 18 16 15 12 9 9 11 11 10 9 8 7 7 7 7 7 6 5 6 7 7 5 5 6 4 8 13 12 9 6 4 7 7 6 5 4 5 5 4 5 6 7 7 6 7 8 10 11 11 11 11 12 13 14 14 15 16
21 21 20 20 19 18 15 12 11 11 12 13 12 11 9 8 8 8 8 8 7 5 3 5 7 9 8 8 8 5 5 8 9 9 7 5 5 4 6 6 5 5 6 5 6 8 9 9 8 9 8 8 8 9 10 10 11 13 14 15 16 17
21 22 22 21 20 19 17 14 13 13 15 14 12 11 10 9 9 8 8 7 6 5 5 4 5 7 8 8 9 9 6 6 7 8 8 7 5 3 4 6 6 6 7 7 7 8 10 10 10 10 10 10 9 8 8 8 11 14 14 15 17 17
22 22 23 23 22 21 20 17 15 16 17 15 14 11 10 10 9 7 6 6 5 6 6 4 4 5 7 7 8 9 8 7 8 9 11 11 7 4 3 4 5 6 7 9 9 9 12 13 13 13 14 14 13 12 11 10 12 15 15 16 17 17
23 22 22 23 23 21 20 17 16 18 18 16 14 11 10 10 8 7 6 5 5 6 6 6 6 5 7 9 9 11 10 8 8 9 11 12 10 6 5 7 8 8 9 10 10 11 13 16 17 16 15 14 14 13 12 12 12 14 17 17 16 16
28 26 25 26 24 21 20 18 17 19 18 15 15 12 11 10 9 8 7 5 5 7 8 8 9 8 7 9 10 10 9 7 8 8 11 14 14 12 10 9 9 9 9 9 9 10 12 15 18 16 15 16 15 13 11 10 11 14 14 12 12 13
28 28 29 30 28 24 22 20 19 20 17 16 16 14 12 12 11 10 8 7 7 8 9 9 8 7 6 7 8 9 9 10 11 10 11 13 15 15 12 10 10 10 10 10 9 9 11 14 17 16 14 15 17 16 14 13 14 15 13 10 11 11
26 28 31 31 29 28 26 23 22 20 17 17 17 15 14 13 13 11 9 9 9 9 10 8 5 5 7 10 10 11 11 11 11 11 10 10 12 12 11 11 13 13 12 11 10 11 13 15 17 16 14 14 15 17 17 15 17 18 16 14 13 10